This is the latest recevied weather packets stored in our database for station/object HB9DDE-10. If no packets are shown the sender has not sent any weather packets the latest 10 day(s).
| Time | Temp. | Humidity | Pressure | Rain* | Wind** | Luminosity | Snow |
|---|---|---|---|---|---|---|---|
| 1776962614 | 22.78° C | 18% | 1023 hPa | 0 mm | - | - | - |
| 1776962324 | 22.22° C | 18% | 1023 hPa | 0 mm | - | - | - |
| 1776962014 | 22.22° C | 18% | 1023 hPa | 0 mm | - | - | - |
| 1776961708 | 22.22° C | 18% | 1023.1 hPa | 0 mm | - | - | - |
| 1776961417 | 22.78° C | 17% | 1023.1 hPa | 0 mm | - | - | - |
| 1776961127 | 22.78° C | 18% | 1023.1 hPa | 0 mm | - | - | - |
| 1776960816 | 22.78° C | 18% | 1023.1 hPa | 0 mm | - | - | - |
| 1776960527 | 22.22° C | 20% | 1023.2 hPa | 0 mm | - | - | - |
| 1776959914 | 22.78° C | 17% | 1023.2 hPa | 0 mm | - | - | - |
| 1776959624 | 22.78° C | 18% | 1023.3 hPa | 0 mm | - | - | - |
| 1776959314 | 22.78° C | 19% | 1023.3 hPa | 0 mm | - | - | - |
| 1776959009 | 23.33° C | 17% | 1023.3 hPa | 0 mm | - | - | - |
| 1776958718 | 23.89° C | 16% | 1023.4 hPa | 0 mm | - | - | - |
| 1776958408 | 23.33° C | 19% | 1023.3 hPa | 0 mm | - | - | - |
| 1776957818 | 22.78° C | 18% | 1023.3 hPa | 0 mm | - | - | - |
| 1776957509 | 22.78° C | 17% | 1023.5 hPa | 0 mm | - | - | - |
| 1776957219 | 23.33° C | 18% | 1023.5 hPa | 0 mm | - | - | - |
| 1776956909 | 23.33° C | 17% | 1023.5 hPa | 0 mm | - | - | - |
| 1776956624 | 23.33° C | 18% | 1023.5 hPa | 0 mm | - | - | - |
| 1776956314 | 22.78° C | 17% | 1023.6 hPa | 0 mm | - | - | - |
| 1776955722 | 23.33° C | 15% | 1023.7 hPa | 0 mm | - | - | - |
| 1776955412 | 23.33° C | 15% | 1023.8 hPa | 0 mm | - | - | - |
| 1776955122 | 22.78° C | 16% | 1023.7 hPa | 0 mm | - | - | - |
| 1776954812 | 22.78° C | 16% | 1023.7 hPa | 0 mm | - | - | - |
| 1776954521 | 22.78° C | 15% | 1023.8 hPa | 0 mm | - | - | - |
* Rain latest hour (hover to see other rain measurements)
** Current wind speed in m/s (hover to see current wind gust speed)